Location: Helsinki
(60.1699°N, 24.9384°E)
Time: 17:46:49
(UTC+02:00)

A-11 Canister half - Pass Details

Date: 31 October 2020
Orbit: 1525 x 1684 km, 47.3° (Epoch: 29 November)

Event Time Altitude Azimuth Distance (km) Brightness Sun altitude
Rises 17:18:20 0° 257° (WSW) 4,750 14.2 -6.9°
Reaches altitude 10° 17:21:42 10° 249° (WSW) 3,746 12.8 -7.3°
Maximum altitude 17:30:00 37° 187° (S) 2,227 10.1 -8.3°
Drops below altitude 10° 17:38:11 10° 125° (SE) 3,691 10.6 -9.3°
Sets 17:41:29 0° 117° (ESE) 4,674 11.1 -9.7°
